CDT,Max TemperatureF,Mean TemperatureF,Min TemperatureF,Max Dew PointF,MeanDew PointF,Min DewpointF,Max Humidity, Mean Humidity, Min Humidity, Max Sea Level PressureIn, Mean Sea Level PressureIn, Min Sea Level PressureIn, Max VisibilityMiles, Mean VisibilityMiles, Min VisibilityMiles, Max Wind SpeedMPH, Mean Wind SpeedMPH, Max Gust SpeedMPH,PrecipitationIn, CloudCover, Events, WindDirDegrees
2013-4-1,41,31,20,22,17,14,81,61,40,30.37,30.30,30.23,10,10,10,9,5,13,0.00,5,,91
2013-4-2,53,34,14,24,18,11,88,57,26,30.28,30.24,30.20,10,10,10,16,7,28,0.00,0,,110
2013-4-3,74,51,28,33,25,21,78,47,15,30.21,30.04,29.87,10,10,10,36,14,40,T,2,,156
2013-4-4,51,40,29,28,22,12,70,46,21,30.24,30.17,30.09,10,10,10,20,11,25,T,3,,26
2013-4-5,65,47,29,33,28,20,78,55,31,30.14,29.82,29.53,10,10,10,29,18,36,0.00,2,,89
2013-4-6,69,50,31,46,35,30,89,60,30,29.85,29.70,29.59,10,10,6,31,12,37,0.01,3,Rain,329
2013-4-7,53,40,27,38,32,27,100,77,54,29.86,29.77,29.64,10,5,1,16,10,20,T,5,,90
2013-4-8,42,31,19,40,32,18,100,92,84,30.19,29.83,29.61,10,4,0,29,17,38,0.05,8,Fog-Rain-Snow,38
2013-4-9,24,20,15,18,14,12,92,80,68,30.39,30.26,30.11,10,3,0,56,21,63,0.18,8,Fog-Snow,360
2013-4-10,29,25,21,25,21,16,92,85,78,30.32,30.16,29.97,10,3,0,24,15,29,0.09,8,Fog-Snow,357
2013-4-11,30,28,25,27,26,21,100,93,85,30.01,29.80,29.75,10,4,1,20,13,22,0.02,8,Rain-Snow,350
2013-4-12,33,26,19,25,23,19,96,81,66,30.02,29.95,29.84,10,9,4,17,8,21,T,6,Snow,331
2013-4-13,35,27,19,32,27,19,100,93,85,30.00,29.80,29.57,10,5,0,30,14,36,0.01,7,Fog-Rain,115
2013-4-14,36,32,28,34,29,23,100,89,78,29.62,29.47,29.36,10,7,1,33,18,41,0.33,8,Rain-Snow,353
2013-4-15,37,31,25,27,26,23,85,78,70,30.15,29.90,29.64,10,10,10,32,18,38,0.00,7,,319
2013-4-16,39,31,23,29,25,21,92,76,59,30.37,30.27,30.13,10,8,1,14,8,18,0.02,5,Snow,39
2013-4-17,33,30,27,28,27,25,100,88,75,30.36,30.22,30.13,10,4,1,22,13,26,0.12,8,Snow,16
2013-4-18,38,32,25,25,21,19,85,67,48,30.17,30.10,30.04,10,9,4,31,19,40,T,5,Snow,336
2013-4-19,43,32,21,22,19,17,81,60,38,30.13,30.05,29.98,10,10,10,22,12,26,0.00,2,,347
2013-4-20,31,25,19,28,25,16,92,81,69,30.16,30.08,29.98,10,6,0,28,15,32,0.03,7,Fog-Snow,119
2013-4-21,51,41,30,39,32,26,96,71,46,30.21,30.06,29.95,10,10,7,28,12,31,T,4,Rain,7
2013-4-22,33,27,21,28,25,19,100,82,63,30.45,30.30,30.16,10,4,0,23,14,26,0.06,7,Fog-Snow,17
2013-4-23,44,30,16,24,19,14,92,65,38,30.44,30.30,30.14,10,10,10,17,10,21,0.00,0,,274
2013-4-24,49,38,26,36,25,18,85,60,34,30.18,30.08,29.99,10,10,8,40,16,148,0.01,3,Rain,299
2013-4-25,73,48,22,32,26,18,92,54,15,30.17,29.96,29.79,10,10,10,26,9,31,0.00,1,,120
2013-4-26,74,55,35,33,28,24,75,46,17,30.09,30.02,29.88,10,10,10,16,8,21,0.00,0,,264
2013-4-27,83,65,47,35,30,26,54,34,14,30.07,29.90,29.72,10,10,10,21,9,28,0.00,0,,209
2013-4-28,73,59,45,39,33,28,71,48,25,29.87,29.76,29.66,10,10,10,28,12,35,0.00,1,,343
2013-4-29,78,55,32,41,32,23,64,41,18,29.88,29.61,29.27,10,10,10,35,12,43,0.00,1,,139
2013-4-30,61,51,41,43,31,23,82,53,24,30.12,29.72,29.34,10,10,10,37,20,46,0.00,2,,315